User: anonymous   Login
Location: Newark
(49.1000°N, 0.4667°W)
Time: 13:01:29
(UTC+00:00)
Language:

Gurwin Techsat 1B - Orbit

View from above orbital plane
View from above orbital plane
View from above satellite
View from above satellite

Ground track
Ground track

The orbit data is extracted from the following two-line orbital elements,

1 25397U 98043D   20188.77222679 -.00000020 +00000-0 +10624-4 0  9991
2 25397 098.7292 130.1238 0001837 043.2484 316.8838 14.23687076142308
Epoch (UTC): 06 July 2020 18:32:00
Eccentricity: 0.0001837
inclination: 98.7292°
perigee height: 811 km
apogee height: 814 km
right ascension of ascending node: 130.1238°
argument of perigee: 43.2484°
revolutions per day: 14.23687076
mean anomaly at epoch: 316.8838°
orbit number at epoch: 14230

The dashed part of the orbit path shows where the satellite is in the earth's shadow,  

DLR